LFRBEGJJ

Guest
Details From LFRB - Brest Bretagne
To EGJJ - Jersey
Flight Number -
Tags decoded
Created
Modified
Stats Distance 100 nm / 184 km
Max Altitude 0 ft / 0 m
Waypoints 3
Social Downloads 0
Likes 0
Share VATSIM

Download

Looking for another format? Having issues loading an existing format? Contact us
Advertisement - Login to hide

Notes

Requested: LFRB SHARK EGJJ

Route

LFRB SHARK EGJJ

ID Type Via Altitude Latitude Longitude Leg Dist Tot Dist Heading (true) Name
O LFRB APT - 0 ft / 0 m 48.44938˚ -4.41823˚ - 0 nm - Brest Bretagne
SHARK FIX - 0 ft / 0 m 49.18972˚ -2.42944˚ 90 nm 90 nm 60° / 61° -
O EGJJ APT - 0 ft / 0 m 49.20796˚ -2.19529˚ 9 nm 99 nm 83° / 83° Jersey

Altitude Profile

Advertisement - Login to hide

LFRB

Details ICAO LFRB (BES)
Name Brest Bretagne
Region France
Timezone Europe/Paris (UTC+1.0)
Stats Elevation 325 ft / 99 m (AMSL)
Location 48.449376° -4.418232°
Runways 2
Magnetic Variation 1.576° W

METAR

LFRB 132230Z AUTO 29016G27KT 9999 FEW038 SCT045 BKN058 08/02 Q1006 TEMPO 27020G45KT SHRA BECMG SCT010TCU BKN020 BKN030

Decode

TAF

TAF LFRB 131700Z 1318/1424 30015KT 9999 SCT010TCU BKN020 BKN030 TEMPO 1318/1424 27020G45KT SHRA PROB40 TEMPO 1406/1418 27025G40KT 3000 TSRAGR BKN015CB

Decode

Departure Runways

ID Width Length Bearing (true) Bearing (mag) Surface Threshold Offset Overrun Length
07L 62 ft / 19 m 2,518 ft / 768 m 71.21° 72.79° Asphalt 131 ft / 40 m 0 ft / 0 m
07R 148 ft / 45 m 10,153 ft / 3,095 m 71.16° 72.74° Asphalt 0 ft / 0 m 0 ft / 0 m
25L 148 ft / 45 m 10,153 ft / 3,095 m 251.19° 252.77° Asphalt 984 ft / 300 m 0 ft / 0 m
25R 62 ft / 19 m 2,518 ft / 768 m 251.22° 252.80° Asphalt 112 ft / 34 m 0 ft / 0 m

EGJJ

Details ICAO EGJJ (JER)
Name Jersey
Region United Kingdom
Timezone Europe/Jersey (UTC+0.0)
Stats Elevation 277 ft / 84 m (AMSL)
Location 49.207964° -2.195294°
Runways 1
Magnetic Variation 0.903° W

METAR

EGJJ 132220Z AUTO 29025G38KT 9999 SCT039CB BKN044/// 08/03 Q1000 RESHRA

Decode

TAF

Not found

Destination Runways

ID Width Length Bearing (true) Bearing (mag) Surface Threshold Offset Overrun Length
09 151 ft / 46 m 5,593 ft / 1,705 m 82.73° 83.63° Asphalt 200 ft / 61 m 0 ft / 0 m
27 151 ft / 46 m 5,593 ft / 1,705 m 262.74° 263.64° Asphalt 302 ft / 92 m 0 ft / 0 m

Approach Navaids

Runway Type Ident Frequency Range Bearing (true) Bearing (mag) Slope Elevation
09 Localiser IJJ 110.90 MHz 18 nm / 33 km 82.59° 83.49° - 277 ft / 84 m (AMSL)
09 Glidescope IJJ 110.90 MHz 10 nm / 19 km 82.74° 83.64° 3.00° 277 ft / 84 m (AMSL)
09 DME IJJ 110.90 MHz 18 nm / 33 km - - - 287 ft / 87 m (AMSL)
27 Localiser IDD 110.30 MHz 18 nm / 33 km 262.70° 263.60° - 277 ft / 84 m (AMSL)
27 Glidescope IDD 110.30 MHz 10 nm / 19 km 262.74° 263.64° 3.00° 277 ft / 84 m (AMSL)
27 DME IDD 110.30 MHz 18 nm / 33 km - - - 289 ft / 88 m (AMSL)

Popular Alternatives